TimeCDT,TemperatureF,Dew PointF,Humidity,Sea Level PressureIn,VisibilityMPH,Wind Direction,Wind SpeedMPH,Gust SpeedMPH,PrecipitationIn,Events,Conditions,WindDirDegrees,DateUTC
12:53 AM,72.0,71.1,97,30.13,7.0,Calm,Calm,-,N/A,,Clear,0,2013-08-26 05:53:00
1:53 AM,73.9,72.0,93,30.13,10.0,SSW,3.5,-,N/A,,Clear,200,2013-08-26 06:53:00
2:53 AM,75.0,71.1,87,30.13,10.0,South,3.5,-,N/A,,Clear,180,2013-08-26 07:53:00
3:53 AM,73.0,71.1,93,30.14,9.0,Calm,Calm,-,N/A,,Clear,0,2013-08-26 08:53:00
4:53 AM,70.0,69.1,97,30.14,4.0,Calm,Calm,-,N/A,,Clear,0,2013-08-26 09:53:00
5:53 AM,69.1,69.1,100,30.14,4.0,Calm,Calm,-,N/A,,Clear,0,2013-08-26 10:53:00
6:45 AM,68.0,68.0,100,30.19,1.8,Calm,Calm,-,N/A,,Clear,0,2013-08-26 11:45:00
6:53 AM,69.1,69.1,100,30.16,1.0,Calm,Calm,-,N/A,,Clear,0,2013-08-26 11:53:00
7:01 AM,69.8,69.8,100,30.19,3.0,Calm,Calm,-,N/A,,Clear,0,2013-08-26 12:01:00
7:53 AM,73.0,72.0,96,30.17,7.0,Calm,Calm,-,N/A,,Clear,0,2013-08-26 12:53:00
8:53 AM,79.0,72.0,79,30.17,10.0,South,3.5,-,N/A,,Clear,170,2013-08-26 13:53:00
9:53 AM,82.9,72.0,69,30.17,10.0,SSW,11.5,-,N/A,,Clear,210,2013-08-26 14:53:00
10:53 AM,87.1,72.0,61,30.18,10.0,SSW,10.4,-,N/A,,Clear,210,2013-08-26 15:53:00
11:53 AM,89.1,72.0,57,30.18,10.0,SSW,9.2,-,N/A,,Clear,210,2013-08-26 16:53:00
12:53 PM,90.0,71.1,54,30.16,10.0,South,8.1,17.3,N/A,,Clear,170,2013-08-26 17:53:00
1:53 PM,91.0,71.1,52,30.14,10.0,South,8.1,-,N/A,,Clear,180,2013-08-26 18:53:00
2:53 PM,91.9,73.0,54,30.11,10.0,South,6.9,-,N/A,,Partly Cloudy,180,2013-08-26 19:53:00
3:53 PM,89.1,71.1,55,30.09,10.0,SSW,8.1,-,N/A,,Clear,200,2013-08-26 20:53:00
4:53 PM,91.0,71.1,52,30.08,10.0,South,9.2,-,N/A,,Clear,180,2013-08-26 21:53:00
5:53 PM,90.0,71.1,54,30.07,10.0,SSW,6.9,-,N/A,,Clear,200,2013-08-26 22:53:00
6:53 PM,87.1,71.1,59,30.06,10.0,SSW,4.6,-,N/A,,Clear,200,2013-08-26 23:53:00
7:53 PM,79.0,73.0,82,30.07,10.0,Calm,Calm,-,N/A,,Clear,0,2013-08-27 00:53:00
8:53 PM,73.9,72.0,93,30.09,10.0,SSW,3.5,-,N/A,,Clear,200,2013-08-27 01:53:00
9:53 PM,71.1,70.0,96,30.09,10.0,Calm,Calm,-,N/A,,Clear,0,2013-08-27 02:53:00
10:53 PM,70.0,69.1,97,30.09,8.0,Calm,Calm,-,N/A,,Clear,0,2013-08-27 03:53:00
11:53 PM,70.0,69.1,97,30.07,7.0,Calm,Calm,-,N/A,,Clear,0,2013-08-27 04:53:00